Regional Weather Roundup
Issued by NWS

Home | Current Version | Previous Version | Text Only | Print | Product List | Glossary On
Versions: 1 2 3 4 5 6 7 8 9 10 11 12 13 14 15 16 17 18 19 20 21 22 23 24 25 26 27 28 29 30 31 32 33 34 35 36 37 38 39 40 41 42 43 44 45 46 47 48 49 50
000
ASUS43 KLOT 201908
RWRIL

ILLINOIS REGIONAL WEATHER ROUNDUP
NATIONAL WEATHER SERVICE CHICAGO/ROMEOVILLE IL
100 PM CST TUE FEB 20 2018

NOTE: "FAIR" INDICATES FEW OR NO CLOUDS BELOW 12,000 FEET WITH NO
SIGNIFICANT WEATHER AND/OR OBSTRUCTIONS TO VISIBILITY.

* THESE STATIONS ARE NOT UNDER NWS QUALITY CONTROL. THEY ALSO MAY NOT
  REPORT WEATHER SUCH AS PRECIPITATION OR FOG.

ILZ001-002-007-009-015-016-024-202000-
NORTHWEST ILLINOIS

CITY           SKY/WX    TMP DP  RH WIND       PRES   REMARKS
MOLINE         RAIN      36  34  92 W13       29.93S FOG     WCI  27
STERLING*        N/A    N/A N/A N/A MISG        N/A
SAVANNA*       RAIN      34  34  99 NW6       29.89F WCI  29
$$

ILZ003-004-008-010-011-017-018-202000-
NORTH CENTRAL ILLINOIS

CITY           SKY/WX    TMP DP  RH WIND       PRES   REMARKS
ROCKFORD       RAIN      42  41  96 SW6       29.90R FOG
FREEPORT*      RAIN      35  35  99 W8        29.90R WCI  29
ROCHELLE*      RAIN      41  41 100 SW5       29.87F
DE KALB*       RAIN      45  45 100 W10       29.88R
PERU*          HVY RAIN  41  40  97 NW7       29.86F
$$

ILZ005-006-012>014-019>023-202000-
NORTHEAST ILLINOIS

CITY           SKY/WX    TMP DP  RH WIND       PRES   REMARKS
CHICAGO-OHARE  LGT RAIN  65  59  81 S18G28    29.80F
CHICAGO-MIDWAY LGT RAIN  66  61  84 S22G32    29.81F
AURORA         LGT RAIN  49  47  93 W18       29.86R
LANSING*       LGT RAIN  63  62  96 SW22G35   29.86F
JOLIET*        LGT RAIN  65  63  95 SW13G25   29.83F
WAUKEGAN       LGT RAIN  62  60  93 SW21G28   29.79F FOG
DUPAGE AIRPORT LGT RAIN  54  52  93 W24G44    29.84R FOG
KANKAKEE*      DRIZZLE   64  62  94 SW21G28   29.88F
WHEELING       CLOUDY    66  61  84 S17G28    29.81F
MORRIS*        HVY RAIN  59  56  89 NW35G53   29.83R
ROMEOVILLE*    RAIN     N/A N/A N/A SW26G39   29.82S
NORTHERLY ISL    N/A     65  58  78 S23         N/A
$$

LMZ740>746-202000-
SOUTHERN LAKE MICHIGAN

STATION/POSITION SKY/WX   TEMP    WIND        PRES    VSBY  WAVE
                          AIR SEA DIR/SP/G                  HT/PER
                          (F)     (DEG/KT/KT) (MB)    (MI)  (FT/S)
HARRISON CRIB              63     200/ 30/ 32   N/A
BURNHAM HARBOR             65     210/ 20/ 24   N/A
CALUMET HARBOR             64     180/ 13/ 22 1009.9F
BURNS HARBOR               62     200/ 22/ 28 1011.9F
MICHIGAN CITY              62     180/ 20/ 24   N/A
$$

ILZ025>027-034>036-040-047-049-050-058-095>099-202000-
WEST-CENTRAL ILLINOIS

CITY           SKY/WX    TMP DP  RH WIND       PRES   REMARKS
QUINCY         LGT RAIN  38  37  97 NW13      29.94R FOG     WCI  30
GALESBURG*     RAIN      36  36 100 NW12      29.92F WCI  28
MACOMB*        MIX PCPN  37  37 100 NW5       29.93F WCI  33
JACKSONVILLE*  HVY RAIN  42  41  97 NW6       29.93R
PITTSFIELD*    LGT RAIN  43  42  97 CALM      29.93S
$$

ILZ028>032-037-038-041>044-048-051>054-059>061-202000-
CENTRAL ILLINOIS

CITY           SKY/WX    TMP DP  RH WIND       PRES   REMARKS
PONTIAC        LGT RAIN  65  64  98 S30G41    29.85F
BLOOMINGTON    CLOUDY    64  62  93 S30G44    29.84F
DECATUR        CLOUDY    66  64  93 S24G37    29.90F
PEORIA         RAIN      43  42  97 N3        29.90S FOG
LACON*         HVY RAIN  42  42  99 W3        29.90R VSB 1
LINCOLN*       CLOUDY    67  64  91 S15G36    29.86S
SPRINGFIELD    RAIN      55  51  86 W25G32    29.92R FOG
TAYLORVILLE    LGT RAIN  65  62  90 S25G35    29.90F
$$

ILZ033-039-045-046-055>057-062-063-202000-
EAST-CENTRAL ILLINOIS

CITY           SKY/WX    TMP DP  RH WIND       PRES   REMARKS
CHAMPAIGN      LGT RAIN  65  62  90 S31G43    29.92F
DANVILLE*      LGT RAIN  64  62  91 S22G32    29.92F
RANTOUL*       LGT RAIN  66  64  93 S22G35    29.91F
MATTOON        LGT RAIN  66  62  87 S15G25    29.95F
PARIS*         FAIR      68  62  81 S23G29    29.99F
$$

ILZ079-100>102-202000-
SOUTHWEST ILLINOIS

CITY           SKY/WX    TMP DP  RH WIND       PRES   REMARKS
ALTON          LGT RAIN  64  63  94 S14       29.93S
BELLEVILLE     FAIR      68  64  85 SW14      29.92F
CAHOKIA*       LGT RAIN  67  62  84 S10G20    29.94S
SPARTA*        CLOUDY    71  64  77 S22G29    29.97F
$$

ILZ064>066-069>071-074>076-080>082-084>086-088>090-092>094-202000-
SOUTH-CENTRAL ILLINOIS

CITY           SKY/WX    TMP DP  RH WIND       PRES   REMARKS
CARBONDALE     PTSUNNY   74  63  68 S26G39    30.01S
CAIRO*         CLOUDY    73  62  67 S21G29    30.06F
EFFINGHAM*     DRIZZLE   69  63  80 S15G22    30.00F
MARION         CLOUDY    72  61  68 S26G33    30.02F
MT. VERNON     CLOUDY    73  63  70 S22G29    29.99F
CENTRALIA*     CLOUDY    71  64  76 S21G30    29.97F
SALEM*         CLOUDY    71  62  73 S22       29.98F
METROPOLIS*    CLOUDY    75  59  58 S17G28    30.07S
$$

ILZ067-068-072-073-078-083-087-091-202000-
SOUTHEAST ILLINOIS

CITY           SKY/WX    TMP DP  RH WIND       PRES   REMARKS
LAWRENCEVILLE  FAIR      76  59  55 SW28G39   30.02F
FLORA*         CLOUDY    73  62  67 S21G31    30.00F
FAIRFIELD*     CLOUDY    73  62  68 S15G21    30.01F
HARRISBURG*    CLOUDY    75  62  63 S17       30.04F
ROBINSON*      CLOUDY    73  60  62 SW20G36   30.02F
CARMI*         PTSUNNY   76  60  57 S23G30    30.03F
$$

ABBREVIATIONS USED IN REMARKS
   TC - TEMPERATURE IN CELSIUS
  WCI - WIND CHILL INDEX
   HX - HEAT INDEX
  VSB - VISIBILITY
$$





USA.gov is the U.S. government's official web portal to all federal, state and local government web resources and services.